Жагаре

Литва     56°21′45″N   23°15′29″E
темп.,
°C
ветер,
м/с
пор.,
м/с
влажн.,
%
обл.,
%
осадки,
мм/ч
давл.,
гПа
погр.,
м
11 мая, вт
вт1100:00+14ююв61681100 0.0 1018473
03:00+12ююв6158596 0.0 1019398
06:00+11ююв5148899 0.0 1019369
09:00+14ююв71579100 0.0 1020537
12:00+18ююв812655 0.0 1019839
15:00+20ююв810615 0.0 10191134
18:00+19юв711665 0.0 10181027
21:00+15юв614735 0.0 1018465
12 мая, ср
ср1200:00+12юв514746 0.0 1019367
03:00+9юв4138310 0.0 1018265
06:00+9юв5138662 0.0 1018268
09:00+15юв6107712 0.0 1018387
12:00+19юв7106947 0.0 1018967
15:00+20юв6968100 0.1 10171555
18:00+19юв68630 0.1 10161444
21:00+13вюв35810 0.1 101579
13 мая, чт
чт1300:00+10вюв34803 0.0 101462
03:00+9с33855 0.0 101231
06:00+11ссв41280100 0.1 1009329
09:00+10в8127998 0.3 10081064
12:00+10св71376100 0.0 10071541
15:00+9всв91591100 0.6 10041158
18:00+8в71296100 1.3 1003627
21:00+9вюв4998100 2.4 1004547
14 мая, пт
пт1400:00+9вюв71297100 2.4 1003701
03:00+10юв61195100 3.5 1003616
06:00+9юв41098100 0.3 1003457
09:00+11ююв4895100 0.6 1003601
12:00+13ю489198 0.1 1004671
15:00+14ю5782100 0.3 1005959
18:00+14ю2485100 0.1 1005433
21:00+13юз2383100 0.3 100544
15 мая, сб
сб1500:00+10сз2286100 0.0 100625
03:00+9зсз2388100 0.0 100784
06:00+8зсз2492100 0.8 1007145
09:00+9з2389100 1.6 1008226
12:00+13з4571100 0.0 1009775
15:00+18з456097 0.0 10081639
18:00
21:00+11з48838 0.1 1010190